TimeEST,TemperatureF,Dew PointF,Humidity,Sea Level PressureIn,VisibilityMPH,Wind Direction,Wind SpeedMPH,Gust SpeedMPH,PrecipitationIn,Events,Conditions,WindDirDegrees,DateUTC
12:56 AM,17.1,3.0,54,30.33,10.0,NNW,12.7,-,N/A,,Clear,330,2013-02-10 05:56:00
1:56 AM,17.1,3.0,54,30.35,10.0,NW,12.7,-,N/A,,Clear,320,2013-02-10 06:56:00
2:56 AM,16.0,3.0,57,30.35,10.0,NW,15.0,-,N/A,,Clear,320,2013-02-10 07:56:00
3:56 AM,15.1,1.9,56,30.35,10.0,NNW,18.4,-,N/A,,Clear,330,2013-02-10 08:56:00
4:56 AM,14.0,1.0,56,30.36,10.0,NNW,12.7,-,N/A,,Clear,330,2013-02-10 09:56:00
5:56 AM,15.1,-0.9,49,30.38,10.0,NW,6.9,-,N/A,,Clear,320,2013-02-10 10:56:00
6:56 AM,15.1,-0.9,49,30.42,10.0,NW,12.7,-,N/A,,Clear,320,2013-02-10 11:56:00
7:56 AM,14.0,-0.9,52,30.42,10.0,NNW,9.2,-,N/A,,Clear,330,2013-02-10 12:56:00
8:56 AM,19.0,-0.9,42,30.45,10.0,NNW,13.8,-,N/A,,Clear,330,2013-02-10 13:56:00
9:56 AM,21.9,1.0,40,30.47,10.0,NW,9.2,-,N/A,,Clear,320,2013-02-10 14:56:00
10:56 AM,25.0,3.0,39,30.48,10.0,WNW,8.1,-,N/A,,Clear,290,2013-02-10 15:56:00
11:56 AM,28.9,3.0,33,30.45,10.0,NW,4.6,-,N/A,,Clear,310,2013-02-10 16:56:00
12:56 PM,30.9,3.0,31,30.43,10.0,West,5.8,-,N/A,,Clear,270,2013-02-10 17:56:00
1:56 PM,32.0,5.0,32,30.40,10.0,West,3.5,-,N/A,,Clear,280,2013-02-10 18:56:00
2:56 PM,33.1,9.0,37,30.41,10.0,NW,3.5,-,N/A,,Clear,320,2013-02-10 19:56:00
3:56 PM,34.0,3.9,28,30.38,10.0,Calm,Calm,-,N/A,,Clear,0,2013-02-10 20:56:00
4:56 PM,32.0,3.0,29,30.39,10.0,WSW,3.5,-,N/A,,Clear,250,2013-02-10 21:56:00
5:56 PM,25.0,6.1,45,30.39,10.0,Calm,Calm,-,N/A,,Clear,0,2013-02-10 22:56:00
6:56 PM,24.1,9.0,53,30.40,10.0,Calm,Calm,-,N/A,,Clear,0,2013-02-10 23:56:00
7:56 PM,21.9,10.9,63,30.40,10.0,Calm,Calm,-,N/A,,Clear,0,2013-02-11 00:56:00
8:56 PM,23.0,12.9,65,30.38,10.0,Calm,Calm,-,N/A,,Clear,0,2013-02-11 01:56:00
9:56 PM,21.9,14.0,72,30.37,10.0,Calm,Calm,-,N/A,,Clear,0,2013-02-11 02:56:00
10:56 PM,26.1,16.0,66,30.35,10.0,Calm,Calm,-,N/A,,Clear,0,2013-02-11 03:56:00
11:56 PM,26.1,18.0,71,30.34,10.0,Calm,Calm,-,N/A,,Clear,0,2013-02-11 04:56:00